Regional Weather Roundup
Issued by NWS

Home | Current Version | Previous Version | Text Only | Print | Product List | Glossary Off
Versions: 1 2 3 4 5 6 7 8 9 10 11 12 13 14 15 16 17 18 19 20 21 22 23 24 25 26 27 28 29 30 31 32 33 34 35 36 37 38 39 40 41 42 43 44 45 46 47 48 49 50

019
ASUS44 KMEG 030000
RWRTN
TENNESSEE HOURLY STATE WEATHER ROUNDUP
NATIONAL WEATHER SERVICE MEMPHIS TN
700 PM CDT MON MAY 02 2016

TNZ002-004-019-021-049-052-054-088>092-030100-
WEST TENNESSEE

CITY           SKY/WX    TMP DP  RH WIND       PRES   REMARKS
MEMPHIS INTL   MOCLDY    65  56  72 N8        29.95R
NWS MEMPHIS      N/A     65 N/A N/A MISG        N/A
JACKSON        CLOUDY    63  57  81 CALM      29.94S
DYERSBURG      PTCLDY    64  52  63 N8          N/A
UNION CITY     CLEAR     64  54  68 N8        29.93S
LEXINGTON      MOCLDY    59  57  94 E8        29.91F
$$

TNZ008-025-027-028-033-062-065-066-030100-
NORTH MIDDLE TENNESSEE

CITY           SKY/WX    TMP DP  RH WIND       PRES   REMARKS
NASHVILLE      CLOUDY    61  57  87 NW8       29.94R
CLARKSVILLE    MOCLDY    60  56  86 SW5       29.94R
COOKEVILLE     CLOUDY    64  63  94 CALM      29.93R
CROSSVILLE     CLOUDY    64  58  80 CALM      29.95F
$$

TNZ061-075-076-078-094-096-097-030100-
SOUTH MIDDLE TENNESSEE

CITY           SKY/WX    TMP DP  RH WIND       PRES   REMARKS
TULLAHOMA      CLOUDY    64  64 100 CALM      29.95R
WINCHESTER     CLOUDY    64  61  88 CALM      29.94R
MCMINNVILLE    CLOUDY    64  63  94 CALM      29.94R
COLUMBIA       CLOUDY   N/A N/A N/A N6        29.91S
SHELBYVILLE    CLOUDY    66  63  88 W3        29.95R
$$

TNZ017-018-042-046-047-030100-
NORTHEAST TENNESSEE

CITY           SKY/WX    TMP DP  RH WIND       PRES   REMARKS
TRI CITIES     CLOUDY    61  55  81 E8        29.96R THUNDER
$$

TNZ012-013-036-069-073-074-030100-
CENTRAL EAST TENNESSEE

CITY           SKY/WX    TMP DP  RH WIND       PRES   REMARKS
KNOXVILLE      LGT RAIN  62  59  90 NE5       29.95R
OAK RIDGE      CLOUDY    63  59  87 E5        29.94R
GATLINBURG     CLOUDY    61  59  94 CALM      29.94F
$$

TNZ083-085-099-030100-
SOUTHEAST TENNESSEE

CITY           SKY/WX    TMP DP  RH WIND       PRES   REMARKS
CHATTANOOGA    CLOUDY    67  64  90 NE5       29.93R
$$

SKY/WX REPORTED AS FAIR MEANS FEW OR NO CLOUDS BELOW
12 THOUSAND FEET.





USA.gov is the U.S. government's official web portal to all federal, state and local government web resources and services.